Regional Weather Roundup
Issued by NWS

Home | Current Version | Previous Version | Graphics & Text | Print | Product List | Glossary On
Versions: 1 2 3 4 5 6 7 8 9 10 11 12 13 14 15 16 17 18 19 20 21 22 23 24 25 26 27 28 29 30 31 32 33 34 35 36 37 38 39 40 41 42 43 44 45 46 47 48 49 50
000
ASUS43 KLOT 250303
RWRIL

ILLINOIS REGIONAL WEATHER ROUNDUP
NATIONAL WEATHER SERVICE CHICAGO/ROMEOVILLE IL
1000 PM CDT TUE MAY 24 2016

NOTE: "FAIR" INDICATES FEW OR NO CLOUDS BELOW 12,000 FEET WITH NO
SIGNIFICANT WEATHER AND/OR OBSTRUCTIONS TO VISIBILITY.

* THESE STATIONS ARE NOT UNDER NWS QUALITY CONTROL. THEY ALSO MAY NOT
  REPORT WEATHER SUCH AS PRECIPITATION OR FOG.

ILZ001-002-007-009-015-016-024-250400-
NORTHWEST ILLINOIS

CITY           SKY/WX    TMP DP  RH WIND       PRES   REMARKS
MOLINE         CLOUDY    77  61  57 S8        29.93R
STERLING*      MOCLDY    77  60  55 CALM      29.95R
$$

ILZ003-004-008-010-011-017-018-250400-
NORTH CENTRAL ILLINOIS

CITY           SKY/WX    TMP DP  RH WIND       PRES   REMARKS
ROCKFORD       MOCLDY    74  57  55 S6        29.96R
FREEPORT*      CLOUDY    72  58  62 S3        29.96R
ROCHELLE*      MOCLDY    73  57  57 S8        29.96R
$$

ILZ005-006-012>014-019>023-250400-
NORTHEAST ILLINOIS

CITY           SKY/WX    TMP DP  RH WIND       PRES   REMARKS
CHICAGO-OHARE  CLOUDY    77  54  44 S10       29.96R
CHICAGO-MIDWAY MOCLDY    80  54  40 S12       29.97R HX  80
AURORA         CLOUDY    77  58  51 S9        29.97R
LANSING*       PTCLDY    74  54  48 S8        29.99R
WAUKEGAN       CLOUDY    68  56  65 CALM      29.95R
DUPAGE AIRPORT MOCLDY    73  56  54 S8        29.96R
WHEELING       CLOUDY    74  54  49 S6        29.97R
NORTHERLY ISL    N/A     80  50  34 S12         N/A  HX  80
NORTHERLY ISL    N/A     80  50  34 S12         N/A  HX  80
$$

LMZ740>746-250400-
SOUTHERN LAKE MICHIGAN

STATION/POSITION SKY/WX   TEMP    WIND        PRES    VSBY  WAVE
                          AIR SEA DIR/SP/G                  HT/PER
                          (F)     (DEG/KT/KT) (MB)    (MI)  (FT/S)
SOUTHERN BUOY              56 49  130/ 10/ 10 1013.6          0
WILMETTE HARBOR            69 57  220/  6/  8   N/A           1
HARRISON CRIB              83     200/ 16/ 18   N/A
BURNHAM HARBOR             79     200/ 11/ 14   N/A
CALUMET HARBOR             80                 1013.9R
BURNS HARBOR               78     190/  9/ 12 1015.2R
MICHIGAN CITY              79     170/ 11/ 13   N/A
MICHIGAN CITY 6N           69 59  190/  8/ 10   N/A           1
ST. JOSEPH                 70 60  160/  6/  8   N/A           0
$$

ILZ025>027-034>036-040-047-049-050-058-095>099-250400-
WEST-CENTRAL ILLINOIS

CITY           SKY/WX    TMP DP  RH WIND       PRES   REMARKS
QUINCY         CLOUDY    70  63  78 S6        29.96S
MACOMB*        CLOUDY    71  63  75 S5        29.98S
PITTSFIELD*    CLOUDY    70  64  79 S5        29.99R
$$

ILZ028>032-037-038-041>044-048-051>054-059>061-250400-
CENTRAL ILLINOIS

CITY           SKY/WX    TMP DP  RH WIND       PRES   REMARKS
BLOOMINGTON    CLOUDY    73  64  73 S10       30.01R
DECATUR        PTCLDY    74  61  63 S12       30.01R
PEORIA         CLOUDY    75  62  64 S5        29.97R
LINCOLN*       MOCLDY    76  66  70 S8        29.98R
SPRINGFIELD    CLOUDY    75  66  73 S8        29.98R
TAYLORVILLE    NOT AVBL
$$

ILZ033-039-045-046-055>057-062-063-250400-
EAST-CENTRAL ILLINOIS

CITY           SKY/WX    TMP DP  RH WIND       PRES   REMARKS
CHAMPAIGN      CLEAR     72  59  63 S10       30.02R
MATTOON        PTCLDY    70  59  68 S3        30.02R
$$

ILZ079-100>102-250400-
SOUTHWEST ILLINOIS

CITY           SKY/WX    TMP DP  RH WIND       PRES   REMARKS
ALTON          CLOUDY    68  63  83 S6        30.01S
CAHOKIA*       CLOUDY    68  63  84 SE5       30.02R
SPARTA*        CLOUDY    64  64  97 CALM      30.04R
$$

ILZ064>066-069>071-074>076-080>082-084>086-088>090-092>094-250400-
SOUTH-CENTRAL ILLINOIS

CITY           SKY/WX    TMP DP  RH WIND       PRES   REMARKS
CARBONDALE     CLOUDY    67  61  81 CALM      30.04R
EFFINGHAM*     PTCLDY    69  62  80 E3        30.04R
MT. VERNON     PTCLDY    68  61  77 SW7       30.05R
SALEM*         CLOUDY    71  65  83 SW9       30.04R
$$

ILZ067-068-072-073-078-083-087-091-250400-
SOUTHEAST ILLINOIS

CITY           SKY/WX    TMP DP  RH WIND       PRES   REMARKS
LAWRENCEVILLE  CLOUDY    72  59  63 SE7       30.04R
FLORA*         CLOUDY    70  62  75 CALM      30.03R
HARRISBURG*    MOCLDY    70  61  75 CALM      30.04R
ROBINSON*      PTCLDY    68  58  71 SE5       30.05R
$$

ABBREVIATIONS USED IN REMARKS
   TC - TEMPERATURE IN CELSIUS
  WCI - WIND CHILL INDEX
   HX - HEAT INDEX
  VSB - VISIBILITY
$$




USA.gov is the U.S. government's official web portal to all federal, state and local government web resources and services.